Location: Unspecified
(53.6186°N, 1.3184°W)
Time: 08:25:48
(UTC+01:00)

ISS - Pass Details

Date: 15 September 2017
Orbit: 401 x 407 km, 51.6° (Epoch: 23 September)

Event Time Altitude Azimuth Distance (km) Brightness Sun altitude
Exits shadow 05:52:03 10° 269° (W) 1,494 -1.6 -7.6°
Reaches altitude 10° 05:52:06 10° 269° (W) 1,474 -1.6 -7.6°
Maximum altitude 05:55:08 35° 202° (SSW) 688 -3.0 -7.2°
Drops below altitude 10° 05:58:10 10° 135° (SE) 1,469 -0.6 -6.8°
Sets 06:00:21 0° 126° (SE) 2,327 0.7 -6.4°
